Location: Flotzheim
(48.8375°N, 10.8136°E)
Time: 04:25:05
(UTC+00:00)

CZ-4C R/B - Pass Details

Date: 23 January 2021
Orbit: 617 x 1385 km, 63.4° (Epoch: 26 February)

Event Time Altitude Azimuth Distance (km) Brightness Sun altitude
Rises 18:50:47 0° 298° (WNW) 3,413 6.3 -27.8°
Reaches altitude 10° 18:53:41 10° 314° (NW) 2,605 5.3 -28.3°
Maximum altitude 18:58:27 23° 5° (N) 2,042 4.1 -29.0°
Enters shadow 18:59:08 22° 13° (NNE) 2,084 4.1 -29.1°
